Hourly Weather Roundup
Issued by NWS Central Illinois

Home | Current Version | Previous Version | Text Only | Print | Product List | Glossary On
Versions: 1 2 3 4 5 6 7 8 9 10 11 12 13 14 15 16 17 18 19 20 21 22 23 24 25 26 27 28 29 30 31 32 33 34 35 36 37 38 39 40 41 42 43 44 45 46 47 48 49 50
502
NZUS43 KILX 212310
HWRILX

AREA WEATHER ROUNDUP
NATIONAL WEATHER SERVICE, LINCOLN IL
500 PM CST TUE FEB 21 2017


CITY           SKY/WX    TMP DP  RH WIND       PRES   REMARKS
BLOOMINGTON    MOCLDY    63  55  75 S5        29.92S
CHAMPAIGN      CLOUDY    61  54  77 SE3       29.92R
DECATUR        CLOUDY    62  55  77 CALM      29.91R
EFFINGHAM      CLOUDY    60  55  84 CALM      29.93S
FLORA          CLOUDY    61  56  82 CALM      29.92S
GALESBURG      CLEAR     64  54  69 SW7       29.89F
JACKSONVILLE   CLOUDY    62  57  82 CALM      29.90S
LACON          CLOUDY    64  57  80 N3        29.90R
LAWRENCEVILLE  CLOUDY    59  57  93 E3        29.93S
LITCHFIELD     CLOUDY    62  57  85 CALM      29.91R
$$


CITY           SKY/WX    TMP DP  RH WIND       PRES   REMARKS
LINCOLN        CLOUDY    64  58  83 CALM      29.91R
MACOMB         PTCLDY    65  57  74 CALM      29.92S
MATTOON        CLOUDY    61  53  75 S5        29.90F
MT CARMEL AP   DRIZZLE   58  54  87 N7        29.92S
OLNEY-NOBLE AP CLOUDY    59  59 100 NE3       29.93S
PARIS          MOCLDY    61  53  75 S5        29.93S
PEORIA         CLOUDY    66  55  67 SW7       29.89S
PONTIAC        PTCLDY    65  57  74 S3        29.91S
RANTOUL        CLOUDY    63  56  79 S5        29.92R
SPRINGFIELD    CLOUDY    64  57  78 CALM      29.90S
TAYLORVILLE    CLOUDY    61  56  85 CALM      29.91S
$$

...REGIONAL REPORTS...


CITY           SKY/WX    TMP DP  RH WIND       PRES   REMARKS
CHICAGO O`HARE MOCLDY    64  51  62 SW6       29.89S
KANKAKEE       PTCLDY    62  54  74 CALM      29.91S
MOLINE         CLEAR     67  44  43 NW3       29.88S
MOUNT STERLING PTCLDY    64  57  76 SE3       29.89S
MOUNT VERNON   CLOUDY    61  54  77 NE9       29.92R
PITTSFIELD     MOCLDY    65  59  81 SE3       29.91R
QUINCY         PTCLDY    65  57  75 CALM      29.89R
ROCKFORD       PTCLDY    64  38  38 W3        29.91S
$$


CITY           SKY/WX    TMP DP  RH WIND       PRES   REMARKS
BURLINGTON     CLEAR     66  53  63 CALM      29.88F
CEDAR RAPIDS   PTCLDY    62  41  46 S5        29.87F
DES MOINES     PTCLDY    67  33  28 SW12      29.85F
KIRKSVILLE     CLEAR     71  45  39 N6        29.89S
OTTUMWA        CLEAR     68  31  25 W7        29.88F
ST LOUIS       MOCLDY    66  56  70 E3        29.90S
$$


CITY           SKY/WX    TMP DP  RH WIND       PRES   REMARKS
TERRE HAUTE    CLOUDY    60  52  74 S9        29.93S
EVANSVILLE     CLOUDY    64  55  72 SE5       29.93R
INDIANAPOLIS   CLOUDY    62  49  62 S7        29.93S
LAFAYETTE      CLOUDY    60  51  72 CALM      29.92S
MADISON        MOCLDY    59  37  44 S5        29.87S
MILWAUKEE      PTCLDY    51  45  79 E7        29.89S
$$






USA.gov is the U.S. government's official web portal to all federal, state and local government web resources and services.